Little Rock AFB, AR

11:50 AM CDT on April 29, 2017 (GMT -0500)
Little Rock Air Force Base

Weather History for KLRF - January, 2014

Change the Weather History Date:

Tuesday, January 28, 2014

  Actual Average Record
Temperature  
Mean Temperature 22 °F -  
Max Temperature 31 °F 53 °F 76 °F (1975)
Min Temperature 12 °F 30 °F 12 °F (2014)
Degree Days  
Heating Degree Days 44    
Moisture  
Dew Point 0 °F    
Average Humidity 41    
Maximum Humidity 73    
Minimum Humidity 22    
Precipitation  
Precipitation 0.00 in - - ()
Sea Level Pressure  
Sea Level Pressure 30.46 in    
Wind  
Wind Speed 9 mph (NNE)    
Max Wind Speed 14 mph    
Max Gust Speed 17 mph    
Visibility 10 miles    
Events Snow    
Averages and records for this station are not official NWS values.
T = Trace of Precipitation, MM = Missing Value Source: NWS Daily Summary

Daily Weather History Graph

Daily Weather History Graph

Search for Another Location

Airport or City:

Trip Planner

Search our weather history database for the weather conditions in past years. The results will help you decide how hot, cold, wet, or windy it might be!

Date:

Astronomy

Jan. 28, 2014 Rise Set
Actual Time 7:10 AM CST 5:33 PM CST
Civil Twilight 6:43 AM CST 6:00 PM CST
Nautical Twilight 6:12 AM CST 6:30 PM CST
Astronomical Twilight 5:42 AM CST 7:00 PM CST
Moon 4:50 AM CST (1/28) 3:25 PM CST (1/28)
Length of Visible Light 11h 17m
Length of Day
10h 23m
Waning Crescent, 7% of the Moon is Illuminated
Jan 28
Waning Crescent
Jan 30
New
Feb 6
First Quarter
Feb 14
Full
Feb 22
Last Quarter

Hourly Weather History & Observations

Time (CST) Temp. Windchill Dew Point Humidity Pressure Visibility Wind Dir Wind Speed Gust Speed Precip Events Conditions
12:58 AM 22.6 °F 10.1 °F -7.4 °F 27% 30.43 in 10.0 mi NNE 13.8 mph - N/A   Overcast
1:58 AM 22.1 °F 10.0 °F -6.7 °F 28% 30.44 in 10.0 mi NE 12.7 mph - N/A   Overcast
2:58 AM 21.4 °F 9.7 °F -3.6 °F 33% 30.44 in 10.0 mi NE 11.5 mph - N/A   Overcast
3:58 AM 21.2 °F 9.5 °F -2.9 °F 35% 30.44 in 10.0 mi NNE 11.5 mph - N/A   Mostly Cloudy
4:02 AM 21.2 °F 9.5 °F -2.2 °F 36% 30.42 in 10.0 mi NE 11.5 mph 16.1 mph N/A   Mostly Cloudy
4:15 AM 21.2 °F 9.5 °F 1.4 °F 42% 30.42 in 10.0 mi North 11.5 mph - N/A   Mostly Cloudy
4:58 AM 20.5 °F 10.0 °F -0.4 °F 40% 30.45 in 10.0 mi NE 9.2 mph - 0.00 in   Partly Cloudy
5:58 AM 20.7 °F 9.5 °F -4.2 °F 34% 30.46 in 10.0 mi North 10.4 mph - N/A   Overcast
6:57 AM 19.4 °F 7.9 °F 3.2 °F 49% 30.45 in 10.0 mi NNE 10.4 mph - N/A Snow Light Snow
6:58 AM 19.6 °F 8.1 °F 2.3 °F 47% 30.48 in 10.0 mi NE 10.4 mph - N/A Snow Light Snow
7:07 AM 19.4 °F 8.6 °F 3.2 °F 49% 30.45 in 10.0 mi NE 9.2 mph - N/A   Overcast
7:58 AM 18.9 °F 8.8 °F 3.9 °F 52% 30.51 in 10.0 mi NNE 8.1 mph - 0.00 in   Overcast
8:14 AM 19.4 °F 11.5 °F 3.2 °F 49% 30.49 in 10.0 mi NNE 5.8 mph - N/A Snow Light Snow
8:22 AM 19.4 °F 9.5 °F 3.2 °F 49% 30.49 in 10.0 mi NNE 8.1 mph - N/A   Mostly Cloudy
8:58 AM 19.9 °F 7.3 °F 1.9 °F 46% 30.52 in 10.0 mi NNE 12.7 mph 17.3 mph 0.00 in   Overcast
9:02 AM 19.4 °F 6.6 °F 1.4 °F 46% 30.49 in 10.0 mi NNE 12.7 mph 17.3 mph N/A Snow Light Snow
9:09 AM 19.4 °F 8.6 °F 1.4 °F 46% 30.49 in 10.0 mi NNE 9.2 mph - N/A   Scattered Clouds
9:58 AM 22.6 °F 13.4 °F -2.0 °F 34% 30.53 in 10.0 mi North 8.1 mph - 0.00 in   Overcast
10:58 AM 24.4 °F 14.9 °F -2.7 °F 31% 30.53 in 10.0 mi NNE 9.2 mph - N/A   Overcast
11:58 AM 25.2 °F 17.3 °F -2.7 °F 30% 30.51 in 10.0 mi NW 6.9 mph - N/A   Overcast
12:58 PM 27.1 °F 17.5 °F -2.4 °F 28% 30.48 in 10.0 mi NNW 10.4 mph - N/A   Overcast
1:58 PM 29.5 °F 24.5 °F -3.3 °F 24% 30.43 in 10.0 mi NE 4.6 mph - N/A   Partly Cloudy
2:58 PM 30.2 °F 26.7 °F -3.1 °F 24% 30.42 in 10.0 mi Variable 3.5 mph - N/A   Clear
3:58 PM 31.3 °F 27.9 °F -3.5 °F 22% 30.41 in 10.0 mi Variable 3.5 mph - N/A   Clear
4:58 PM 30.2 °F 26.7 °F -4.4 °F 22% 30.40 in 10.0 mi Variable 3.5 mph - N/A   Clear
5:58 PM 27.1 °F - -2.2 °F 28% 30.40 in 10.0 mi NNW 1.2 mph - N/A   Clear
6:58 PM 19.9 °F - 1.0 °F 44% 30.43 in 10.0 mi Calm Calm - N/A   Clear
7:58 PM 16.9 °F - 2.8 °F 54% 30.45 in 10.0 mi Calm Calm - N/A   Clear
8:58 PM 13.8 °F - 4.3 °F 66% 30.46 in 10.0 mi East 1.2 mph - N/A   Clear
9:58 PM 14.0 °F - 1.6 °F 58% 30.47 in 10.0 mi Calm Calm - N/A   Clear
10:58 PM 12.2 °F - 4.3 °F 71% 30.47 in 10.0 mi East 1.2 mph - N/A   Clear
11:58 PM 12.7 °F 6.7 °F 5.5 °F 73% 30.48 in 10.0 mi SSE 3.5 mph - N/A   Clear